Showing default

GEESAT 4-05, 65123

Orbit data source: Space-Track

GEESAT 4-05, 65123 is a payload satellite owned by GeeSpace (CN) in LEO that was launched on Fri, 08 Aug 2025 UTC via a JIELONG-3 launch vehicle from the Yellow Sea Launch Area, China (YSLA). Payload-class satellites include a variety of spacecraft equipped with specific instruments for various scientific and technological missions. These include communications satellites like Starlink; space stations such as the ISS; scientific satellites like the Hubble; Earth observation satellites from companies like Planet Labs, Umbra, and HawkEye 360; GPS; miniature CubeSats for education and research; and military/defense satellites.

Loading next visibility...
Identifier
65123, 2025-170E
Orbit
LEO
Country
Flag of CNCN / PRC
Related business
Manufacturer
GWCG
Mission
Operational Commercial Navigation
Bus & Motor
GPS100, Unknown motor
Mass
130 kg wet, 130 kg dry
Launch date (UTC)
2025-08-08 (6 months ago)
Launch vehicle
JIELONG-3
Launch site
Yellow Sea Launch Area, China (YSLA)
Object type
Payload
Rocket body
Debris
Shape & HBR
Box + 2 Pan, 1.0 m
Radar Cross Section
0.833 m², Medium (>0.1 m² and < 1m²)

Expand to show TLE details & history
Last TLE update: 17 hours ago

TLE from 17 hours ago
0 GEESAT 4-05
1 65123U 25170E   26034.55336554  .00047872  00000-0  10437-2 0  9998
2 65123  49.9968  42.1369 0023950 338.6836  21.3127 15.43421841 27014
Epoch: 2026-02-03T13:16Z
TLE epoch observation values (Epoch: 2026-02-03T13:16:50.782Z)
Latitude
-0.00008°
Longitude
69.19259°
Altitude
421.38 km
Speed
7.668 km/s
True Right ascension
02h 48m 32s
True Declination
0° 00' 00"
Sunlit
Object was in daylight at epoch
Visualization orbit readout
Latitude
Unknown
Longitude
Unknown
Altitude
Unknown
Speed
Unknown
Apparent Right ascension
Unknown
Apparent Declination
Unknown
Sunlit
N/A
Visualization observer readout
Local Sidereal Time
08:37:45
Azimuth
Unknown
Elevation
Unknown
Doppler factor
Unknown
Orbital elements
Apogee altitude
453.12 km
Perigee altitude
420.476 km
Semi-major axis
6,814.935 km
Eccentricity
0.0024
Inclination
49.9968°
RAAN
42.1369°
Arg. of periapsis
338.6836°
True anomaly
21.41273°
Mean anomaly
21.3127°
Eccentric anomaly
21.36269°
Mean motion
3.8579 °/min
Orbital period
93.32 mins
BSTAR
0.0010437
Loading maneuver chart data...
Computing Atmospheric mass density...
Loading historical data...
Loading historical data...
Loading historical data...
Loading historical data...
Loading historical data...
Loading historical data...
Loading historical data...

Documentation

Showing up to 5 results
|